Voltar ao catálogo

COSMOS 1275 DEB

AtivoPO
NORAD 12740·DEBRIS·🇷🇺 Russia

Lançado Jun 4, 1981 de Plesetsk Cosmodrome

Loading…

Próximas Passagens (próximas 24 horas)

TLE

AtualizadoSource: Space-Track

Época: Sep 14, 2026, 09:19 UTC

1 12740U 81053CH  26257.38823843  .00002504  00000-0  75909-3 0  9996
2 12740  82.8353 126.6595 0010497 206.5069 327.6629 14.41930626310171

Acompanhe COSMOS 1275 DEB em tempo real com AllMySat

Download on the App Store